Regional Weather Roundup
Issued by NWS

Home | Current Version | Previous Version | Text Only | Print | Product List | Glossary On
Versions: 1 2 3 4 5 6 7 8 9 10 11 12 13 14 15 16 17 18 19 20 21 22 23 24 25 26 27 28 29 30 31 32 33 34 35 36 37 38 39 40 41 42 43 44 45 46 47 48 49 50
000
ASUS43 KDTX 271301
RWRMI
MICHIGAN HOURLY REGIONAL WEATHER ROUNDUP
NATIONAL WEATHER SERVICE DETROIT/PONTIAC MI
900 AM EDT SAT AUG 27 2016

NOTE: "FAIR" INDICATES FEW OR NO CLOUDS BELOW 12,000 FEET WITH NO
SIGNIFICANT WEATHER AND/OR OBSTRUCTION TO VISIBILITY.

MIZ047>049-052>055-059>063-066>070-074>076-081>083-271400-
SOUTHEAST LOWER MICHIGAN

CITY           SKY/WX    TMP DP  RH WIND       PRES   REMARKS
ADRIAN         CLOUDY    71  63  75 SE6       30.15S
ALMA           CLOUDY    65  64  96 NE3       30.16S
ANN ARBOR      MOSUNNY   73  68  84 E6        30.14S
BAD AXE        CLOUDY    68  68  98 S5        30.18R
CARO           PTSUNNY   67  65  92 CALM      30.16S
DETROIT CITY   PTSUNNY   76  70  82 SE9       30.16S
DETROIT        PTSUNNY   75  69  81 E6        30.15S
FLINT          CLOUDY    74  65  73 SE5       30.15S
GROSSE ILE     MOSUNNY   76  69  78 SE5       30.14F
HILLSDALE      MOSUNNY   71  60  67 SE6       30.15R
HOWELL         CLOUDY    72  68  88 SE8       30.15S

CITY           SKY/WX    TMP DP  RH WIND       PRES   REMARKS
JACKSON        CLOUDY    71  64  78 SE8       30.14F
LAMBERTVILLE   MOSUNNY   74  62  66 SE6       30.14F
LANSING        CLOUDY    70  62  76 E6        30.14S
LAPEER         FAIR      70  67  89 SE3       30.17F
MASON          CLOUDY    70  65  83 S8        30.14S
MONROE         CLOUDY    77  65  65 E6        30.13S
MT. CLEMENS    CLOUDY    72  70  92 E7        30.15S
PONTIAC        CLOUDY    74  68  81 SE9       30.16S
PORT HURON     CLOUDY    70  68  94 SE5       30.18S
TRI CITIES     LGT RAIN  67  65  93 NE5       30.16S
MIDLAND        LGT RAIN  63  63 100 CALM      30.16S
TROY           CLOUDY    76  69  80 E3        30.18S
SAGINAW HB     CLOUDY    68  64  88 CALM      30.14F
$$
MIZ043>046-050>051-056>058-064>065-071>073-077>080-271400-
SOUTHWEST LOWER MICHIGAN

CITY           SKY/WX    TMP DP  RH WIND       PRES   REMARKS
BATTLE CREEK   LGT RAIN  67  64  90 CALM      30.15R
BENTON HARBOR  LGT RAIN  68  65  90 E6        30.12F
BIG RAPIDS     LGT RAIN  63  62  97 CALM      30.17R
COLDWATER      CLOUDY    70  61  72 SE5       30.13S
FREMONT        DRIZZLE   63  61  94 E5        30.15R
HOLLAND        HVY RAIN  64  62  93 SE6       30.17R FOG
GRAND RAPIDS   TSTM      64  60  87 NW6       30.16R VSB 1
IONIA          CLOUDY    64  61  90 E5        30.13S
KALAMAZOO      RAIN      68  64  87 CALM      30.14R FOG
LUDINGTON      CLOUDY    60  60  99 NE5       30.14S
MARSHALL       CLOUDY    70  66  88 CALM      30.13S
MOUNT PLEASANT RAIN      64  63  97 CALM      30.16S
MUSKEGON       LGT RAIN  64  62  93 E5        30.15R
SOUTH HAVEN    RAIN      67  67  97 E8        30.13R
$$
MIZ016>042-271400-
NORTHERN LOWER MICHIGAN

CITY           SKY/WX    TMP DP  RH WIND       PRES   REMARKS
ALPENA         CLOUDY    65  61  87 N3        30.20R
BEAVER ISLAND  LGT RAIN  64  63  97 SE5       30.19R
BELLAIRE       CLOUDY    62  58  88 CALM      30.18F
CADILLAC       RAIN      61  60  96 E3        30.18R
CHARLEVOIX     DRIZZLE   64  60  88 SE3       30.21S
FRANKFORT      LGT RAIN  61  59  93 CALM      30.15F
GAYLORD        CLOUDY    64  56  75 CALM      30.21R
GRAYLING       LGT RAIN  61  59  92 CALM      30.20S
HARBOR SPRINGS CLOUDY    62  59  90 E7        30.19S
HOUGHTON LAKE  LGT RAIN  61  59  93 E3        30.20S
MANISTEE       LGT RAIN  61  60  97 E6        30.15F
OSCODA         CLOUDY    70  66  88 SE6       30.17R
PELLSTON       CLOUDY    60  58  92 CALM      30.20S
ROGERS CITY    CLOUDY    63  60  90 CALM      30.22R
TRAVERSE CITY  LGT RAIN  63  59  87 CALM      30.16F
$$
MIZ007>008-015-271400-
EASTERN UPPER MICHIGAN

CITY           SKY/WX    TMP DP  RH WIND       PRES   REMARKS
KINROSS        CLOUDY    59  55  87 SE6       30.21R
MACKINAC ISLAN CLOUDY    61  61 100 E5        30.20S
NEWBERRY       CLOUDY    58  56  93 E3        30.18F
S. S. MARIE    CLOUDY    58  55  90 E3        30.21R
$$
MIZ004>006-011>014-085-271400-
CENTRAL UPPER MICHIGAN

CITY           SKY/WX    TMP DP  RH WIND       PRES   REMARKS
MANISTIQUE     DRIZZLE   64  61  92 E7        30.16S
ESCANABA       CLOUDY    64  62  93 CALM      30.15S
MENOMINEE        N/A    N/A N/A N/A MISG        N/A
SAWYER-GWINN   MOSUNNY   55  54  94 CALM      30.17S
$$
MIZ001>003-009>011-084-271400-
WESTERN UPPER MICHIGAN

CITY           SKY/WX    TMP DP  RH WIND       PRES   REMARKS
IRON MOUNTAIN  CLOUDY    59  56  89 CALM      30.14F
HOUGHTON       CLOUDY    56  54  93 CALM      30.15R
IRONWOOD       CLOUDY    59  52  77 SE6       30.13F
$$

ABBREVIATIONS USED IN REMARKS
   TC - TEMPERATURE IN CELSIUS
  WCI - WIND CHILL INDEX
   HX - HEAT INDEX
  VSB - VISIBILITY





USA.gov is the U.S. government's official web portal to all federal, state and local government web resources and services.